Regional Weather Roundup
Issued by NWS

Home | Current Version | Previous Version | Text Only | Print | Product List | Glossary Off
Versions: 1 2 3 4 5 6 7 8 9 10 11 12 13 14 15 16 17 18 19 20 21 22 23 24 25 26 27 28 29 30 31 32 33 34 35 36 37 38 39 40 41 42 43 44 45 46 47 48 49 50

000
ASUS43 KBIS 061902
RWRND

NORTH DAKOTA REGIONAL WEATHER ROUNDUP
NATIONAL WEATHER SERVICE BISMARCK ND
200 PM CDT MON JUL 06 2015

NOTE: "FAIR" INDICATES FEW OR NO CLOUDS BELOW 12,000 FEET WITH NO
SIGNIFICANT WEATHER AND/OR OBSTRUCTIONS TO VISIBILITY.


NDZ001>003-009>011-017-062000-
NORTHWEST NORTH DAKOTA

CITY           SKY/WX    TMP DP  RH WIND       PRES   REMARKS
WILLISTON      PTSUNNY   67  50  54 N12       30.20S HAZE
MINOT          PTSUNNY   63  49  60 N8        30.17F
$$

NDZ018>021-031>035-040>046-062000-
SOUTHWEST NORTH DAKOTA

CITY           SKY/WX    TMP DP  RH WIND       PRES   REMARKS
BISMARCK       CLOUDY    69  53  56 NE13      30.15F HAZE
DICKINSON      CLOUDY    66  51  58 N15       30.17F
GARRISON         N/A     61  53  75 N5        30.17R
HETTINGER ARPT PTSUNNY   69  50  50 NW8       30.21S
$$

NDZ004>008-012>016-024-026-027-054-062000-
NORTHEAST NORTH DAKOTA

CITY           SKY/WX    TMP DP  RH WIND       PRES   REMARKS
GRAND FORKS    PTSUNNY   63  50  62 N13G21    30.10S
GRND FRKS AFB  PTSUNNY   62  49  62 N12       30.12R
DEVILS LAKE    CLOUDY    61  46  59 N12       30.13S
$$

NDZ022-023-025-028>030-036>039-047>053-062000-
SOUTHEAST NORTH DAKOTA

CITY           SKY/WX    TMP DP  RH WIND       PRES   REMARKS
FARGO          MOSUNNY   68  48  48 N24       30.08S
JAMESTOWN      PTSUNNY   64  52  64 N10       30.12S
$$



USA.gov is the U.S. government's official web portal to all federal, state and local government web resources and services.